Regional Weather Roundup
Issued by NWS Sterling, VA

Home | Current Version | Previous Version | Graphics & Text | Print | Product List | Glossary On
Versions: 1 2 3 4 5 6 7 8 9 10 11 12 13 14 15 16 17 18 19 20 21 22 23 24 25 26 27 28 29 30 31 32 33 34 35 36 37 38 39 40 41 42 43 44 45 46 47 48 49 50
000
ASUS41 KLWX 170610
RWRLWX

REGIONAL WEATHER ROUNDUP
NATIONAL WEATHER SERVICE BALTIMORE MD/WASHINGTON DC
100 AM EST WED DEC 17 2014

Note: "FAIR" indicates few or no clouds below 12,000 feet
with no significant weather and/or obstructions to visibility.
 TC=TEMPERATURE CELSIUS

 * =Non NWS site. Station does not report precipitation (e.g. rain,
    snow, etc.), thunder, or fog.

DCZ001-MDZ009-015-VAZ040>042-051-053>054-170700-
WASHINGTON METRO

CITY           SKY/WX    TMP DP  RH WIND       PRES   REMARKS
WASHINGTON NAT PTCLDY    45  40  82 CALM      29.91F HAZE
DULLES         FOG       40  40 100 CALM      29.91S VSB 1/8
FT BELVOIR     CLOUDY    45  43  93 NW2       29.92F
QUANTICO       CLOUDY    45  42  89 W6        29.93S FOG
COLLEGE PARK*    N/A     41  41 100 CALM      29.90S VSB 1/4
LEESBURG*      FOG       41  41 100 SW3       29.91F VSB 1/4
MANASSAS*      CLOUDY    43  43 100 CALM      29.92S VSB 1/4
GAITHERSBURG*  CLOUDY    39  37  93 W6        29.93S VSB 1/4

$$

MDZ006>007-011-014-170700-
BALTIMORE METRO

CITY           SKY/WX    TMP DP  RH WIND       PRES   REMARKS
BWI AIRPORT    PTCLDY    41  40  96 W3        29.88F FOG
MD SCIENCE CTR   N/A     42  41  96 MISG      29.87F
MARTIN STATE   PTCLDY    43  43 100 W6        29.89F FOG
ANNAPOLIS      CLEAR     45  42  89 W5        29.89S FOG
FORT MEADE*      N/A     39  37  93 W3        29.92S VSB 3/4

$$

MDZ012-015-019>023-170700-
MARYLAND EASTERN SHORE

CITY           SKY/WX    TMP DP  RH WIND       PRES   REMARKS
OCEAN CITY     MOCLDY    48  45  89 NW10      29.86S FOG
SALISBURY      CLOUDY    50  45  83 W9        29.88S HAZE
BAY BRIDGE AP*   N/A     43  43 100 W5        29.89S FOG
CAMBRIDGE*     CLOUDY    48  45  87 W3        29.89S
EASTON*        CLOUDY    47  47 100 NW5       29.92S FOG

$$

MDZ017>025-170700-
SOUTHERN MARYLAND

CITY           SKY/WX    TMP DP  RH WIND       PRES   REMARKS
PATUXENT RIVER CLOUDY    47  44  90 W8        29.90S
ST INIGOES     CLOUDY    47  43  86 W6        29.90S
LEONARDTOWN*   NOT AVBL

$$

MDZ003>005-170700-
NORTH CENTRAL MARYLAND

CITY           SKY/WX    TMP DP  RH WIND       PRES   REMARKS
FREDERICK*     CLOUDY    43  37  81 CALM      29.93S FOG
HAGERSTOWN APT FOG       40  39  97 S3        29.89S VSB 1/4
WESTMINSTER*   FOG       39  39 100 W5        29.87F VSB<1/4

$$

MDZ501>502-170700-
WESTERN MARYLAND

CITY           SKY/WX    TMP DP  RH WIND       PRES   REMARKS
OAKLAND*       FOG       34 N/A N/A W15G24    29.89S VSB 1/4 WCI  24
CUMBERLAND*    MOCLDY    46  37  71 W6        29.95S

$$

VAZ025>031-170700-
SHENANDOAH VALLEY

CITY           SKY/WX    TMP DP  RH WIND       PRES   REMARKS
WINCHESTER*    MOCLDY    37  36  93 CALM      29.90S FOG
FRONT ROYAL*   FAIR      34  34 100 SW5       29.89F
LURAY*         CLOUDY    50  41  71 SW8       29.91F
NEW MARKET*    CLOUDY    37  37 100 CALM      29.92S
STAUNTON*      CLEAR     47  35  63 W5        29.94S
WAYNESBORO*    FAIR      44  36  71 W5        29.92F

$$

WVZ021-048>050-054>055-170700-
EASTERN WEST VIRGINIA PANHANDLE

CITY           SKY/WX    TMP DP  RH WIND       PRES   REMARKS
MARTINSBURG    FOG       39  36  89 CALM      29.90S VSB 1/2
PETERSBURG*    LGT RAIN  47  39  76 CALM      29.95S

$$

VAZ036>039-050-170700-
CENTRAL FOOTHILLS

CITY           SKY/WX    TMP DP  RH WIND       PRES   REMARKS
CHARLOTTESVILL PTCLDY    46  38  73 VRB3      29.91S
CULPEPER*      FOG       43  43 100 CALM      29.91F VSB 1/2
ORANGE*        FOG       41  41 100 S3        29.92F VSB<1/4
GORDONSVILLE*  FOG       38  38  99 CALM      29.91S VSB 1/4
WARRENTON*     FOG       45  45 100 CALM      29.90F VSB 1/2

$$

VAZ055>057-170700-
NORTH AND CENTRAL PIEDMONT

CITY           SKY/WX    TMP DP  RH WIND       PRES   REMARKS
FREDERICKSBRG* CLOUDY    46  46 100 CALM      29.91S FOG
STAFFORD*      CLOUDY    45  45 100 CALM      29.95F FOG

$$

NCZ024-NYZ072-PAZ021-071-VAZ022-071-170700-
OTHER REGIONAL OBSERVATIONS

CITY           SKY/WX    TMP DP  RH WIND       PRES   REMARKS
NEW YORK CITY  CLOUDY    45  42  89 CALM      29.84S FOG
PHILADELPHIA   CLOUDY    48  44  86 W8        29.85F
PITTSBURGH     CLOUDY    41  39  93 W9G18     29.92S
ROANOKE        MOCLDY    49  36  61 W10G21    29.99S
RICHMOND       PTCLDY    42  40  92 CALM      29.91F FOG
RALEIGH        CLEAR     46  40  79 CALM      29.99S

$$

ANZ530>537-170700-
MARINE OBSERVATIONS

STATION/POSITION TIME  TEMP    WIND        PRES
                       AIR SEA DIR/SP/G
                 (UTC) (F)     (DEG/KT/KT) (MB)
THOMAS PT LIGHT  0600   45 43  290/  6/  7 1013.3F
BALT KEY BRIDGE  0600   44     260/  7/  8 1011.8F
COVE POINT       0600   46     320/  6/  9 1012.2S
LEWISETTA        0600   47 44  290/  9/ 11 1012.3R
SOLOMONS ISLAND  0600      44                N/A
PINEY POINT      0600          330/  8/  9   N/A

$$



USA.gov is the U.S. government's official web portal to all federal, state and local government web resources and services.